STARLINK-34194

Satellite information

Favourite Embed

Satellite Type and Status

PAYLOADIN ORBIT

Key statistics

Satellite STARLINK-34194 at a glance.

Uptime

199

Days in orbit

Revolutions

≈ 15.3

Per day

Orbit

LEO

Low Earth Orbit

Inclination

53.2

Latest

Satellite identification and parameters

Extended collection of information and parameters for STARLINK-34194.

Object identification

Identified? True

Debris? False

Object name: STARLINK-34194

International designator: 2025-113K

Object number (NORAD): 64179

Object ID (CCSDS): 64179

Country: UNITED STATES OF AMERICA (US)

Current information (Y/N): Y

RCS size: LARGE

Orbital parameters

Period: 94.105 minutes

Inclination: 53.1561 deg

SMA: 6853.35 km

Apoapsis: 475.699 km

Periapsis: 474.73 km

RAAN: 139.0011 deg

Eccentricy: 0.00007066

Argument of periapsis: 96.0164 deg

Mean anomaly: 264.0917 deg

Mean motion: 15.30200782 rev/day

Mean motion (dot): 0.00030211 rev/day2

B* drag term: 0.0010279815 1/REarth

Two-line elements (TLE)

Creation date: Dec. 12, 2025, 3:16 a.m.

Reference frame: TEME

Reference center: EARTH

Epoch: Dec. 11, 2025, 7:04 p.m. UTC

TLE line 0: 0 STARLINK-34194

TLE line 1: 1 64179U 25113K 25345.79498967 .00030211 00000-0 10280-2 0 9997

TLE line 2: 2 64179 53.1561 139.0011 0000707 96.0164 264.0917 15.30200782 31613

Live tracking on map

Real-time ground track for satellite STARLINK-34194.

In-orbit conjunctions

There are no conjunctions computed for STARLINK-34194, at the moment. Check back to stay up to date, as we update our databases every day.

Go to all conjunctions

Associated space launch

A batch of 27 satellites for the Starlink mega-constellation - SpaceX's project for space-based Internet communication system.

STARLINK-34194 was lifted into orbit during the mission ‘Falcon 9 Block 5 | Starlink Group 10-32’, on board a Falcon 9 space rocket.

The launch took place on May 28, 2025, 1:30 p.m. from Launch Complex 39A.

For more information about the launch, click the button.

Launch to space Falcon 9 Block 5 | Starlink Group 10-32
Falcon 9 Block 5 | Starlink Group 10-32

Agency: SpaceX

Status: Launch Successful

Launch date: May 28, 2025, 1:30 p.m. UTC

Rocket: Falcon 9

Launch pad: Launch Complex 39A

Location: Kennedy Space Center, FL, USA

...

Latest news about this satellite

News about space launch
Launch Roundup: Chinese asteroid mission, Electron, and Falcon 9 set to launch

This week, China will launch a near-Earth asteroid sample return mission amongst several other missions.… The post Launch Roundup: Chinese asteroid mission, Electron, and Falcon 9 set to launch appeared first on NASASpaceFlight.com.

News about space launch
Live coverage: SpaceX to launch 27 Starlink satellites on Falcon 9 launch from NASA’s Kennedy Space Center

The Starlink 10-32 mission will see a Falcon 9 rocket fly in a north-easterly trajectory after launching from Launch Complex 39A at NASA's Kennedy Space Center. SpaceX is targeting a liftoff at 9:30 a.m. EDT (1330 UTC).


Newsletter sign-up

Weekly statistics, charts and insights to help you stay on top of the space industry.